User: anonymous   Login
Location: Unspecified
(0.0000°N, 0.0000°E)
Time: 21:31:38
(UTC+00:00)
Language:

ATS 3 - Orbit

View from above orbital plane
View from above orbital plane
View from above satellite
View from above satellite

Ground track
Ground track

The orbit data is extracted from the following two-line orbital elements,

1  3029U 67111A   18048.29587175 -.00000095 +00000-0 +00000-0 0  9990
2  3029 004.2490 296.0921 0013845 118.7786 093.5840 01.00271740184120
Epoch (UTC): 17 February 2018 07:06:03
Eccentricity: 0.0013845
inclination: 4.2490°
perigee height: 35728 km
apogee height: 35844 km
right ascension of ascending node: 296.0921°
argument of perigee: 118.7786°
revolutions per day: 1.00271740
mean anomaly at epoch: 93.5840°
orbit number at epoch: 18412

The dashed part of the orbit path shows where the satellite is in the earth's shadow,  

DLR